Weather History for Caribou, ME

Change the Weather History Date:

Tuesday, April 29, 2014

  Actual Average Record
Temperature  
Mean Temperature 41 °F 45 °F  
Max Temperature 50 °F 55 °F 75 °F (1986)
Min Temperature 32 °F 35 °F 8 °F (1947)
Degree Days  
Heating Degree Days 24 20  
Month to date heating degree days 805 776  
Since 1 July heating degree days 8999 8751  
Cooling Degree Days 0 0  
Month to date cooling degree days 0 0  
Year to date cooling degree days 0 0  
Moisture  
Dew Point 27 °F    
Average Humidity 62    
Maximum Humidity 82    
Minimum Humidity 42    
Precipitation  
Precipitation 0.00 in 0.10 in 1.48 in (2008)
Month to date precipitation 4.37 2.57  
Year to date precipitation 14.03 10.00  
Snow  
Snow 0.00 in 0.10 in 4.40 in (1987)
Month to date snowfall 9.2 7.3  
Since 1 July snowfall 150.7 108.1  
Snow Depth T in    
Sea Level Pressure  
Sea Level Pressure 30.56 in    
Wind  
Wind Speed 9 mph (ENE)    
Max Wind Speed 20 mph    
Max Gust Speed 26 mph    
Visibility 10 miles    
Events      
T = Trace of Precipitation, MM = Missing Value Source: NWS Daily Summary

Daily Weather History Graph

Daily Weather History Graph

Search for Another Location

Airport:

Trip Planner

Search our weather history database for the weather conditions in past years. The results will help you decide how hot, cold, wet, or windy it might be!

Date:

Astronomy

Apr. 29, 2014 Rise Set
Actual Time 5:20 AM EDT 7:39 PM EDT
Civil Twilight 4:46 AM EDT 8:13 PM EDT
Nautical Twilight 4:04 AM EDT 8:55 PM EDT
Astronomical Twilight 3:17 AM EDT 9:42 PM EDT
Moon 5:36 AM EDT (4/29) 8:17 PM EDT (4/29)
Length of Visible Light 15h 26m
Length of Day
14h 19m
New Moon, 0% of the Moon is Illuminated
Apr 29
New Moon
May 6
First Quarter
May 14
Full
May 21
Last Quarter
May 28
New

Hourly Weather History & Observations

Time (EDT) Temp. Windchill Dew Point Humidity Pressure Visibility Wind Dir Wind Speed Gust Speed Precip Events Conditions
12:54 AM 36.0 °F 29.6 °F 28.9 °F 76% 30.42 in 10.0 mi North 8.1 mph - N/A   Overcast
1:54 AM 36.0 °F 29.6 °F 28.9 °F 76% 30.43 in 10.0 mi North 8.1 mph - N/A   Scattered Clouds
2:54 AM 34.0 °F 28.8 °F 28.0 °F 79% 30.44 in 10.0 mi NNE 5.8 mph - N/A   Partly Cloudy
3:54 AM 33.1 °F 26.9 °F 27.0 °F 78% 30.46 in 10.0 mi North 6.9 mph - N/A   Partly Cloudy
4:54 AM 33.1 °F 26.9 °F 27.0 °F 78% 30.48 in 10.0 mi NNE 6.9 mph - N/A   Clear
5:54 AM 33.1 °F 26.9 °F 27.0 °F 78% 30.51 in 10.0 mi NNE 6.9 mph - N/A   Clear
6:39 AM 35.1 °F 28.6 °F 27.0 °F 72% 30.51 in 10.0 mi NE 8.1 mph - N/A   Mostly Cloudy
6:54 AM 36.0 °F 29.6 °F 27.0 °F 70% 30.56 in 10.0 mi NE 8.1 mph - N/A   Overcast
7:54 AM 37.0 °F 29.3 °F 26.1 °F 65% 30.57 in 10.0 mi ENE 11.5 mph - N/A   Mostly Cloudy
8:54 AM 39.9 °F 32.5 °F 27.0 °F 60% 30.60 in 10.0 mi ENE 12.7 mph - N/A   Mostly Cloudy
9:54 AM 39.9 °F 32.5 °F 27.0 °F 60% 30.61 in 10.0 mi NE 12.7 mph 20.7 mph N/A   Overcast
10:34 AM 42.1 °F 34.9 °F 26.1 °F 53% 30.57 in 10.0 mi ENE 13.8 mph - N/A   Partly Cloudy
10:54 AM 44.1 °F 37.4 °F 27.0 °F 51% 30.61 in 10.0 mi ENE 13.8 mph 23.0 mph N/A   Partly Cloudy
11:54 AM 46.0 °F 39.9 °F 28.0 °F 50% 30.60 in 10.0 mi East 13.8 mph 19.6 mph N/A   Partly Cloudy
12:54 PM 46.9 °F - 28.9 °F 50% 30.61 in 10.0 mi ENE 15.0 mph 19.6 mph N/A   Clear
1:54 PM 48.0 °F - 28.0 °F 46% 30.60 in 10.0 mi NNE 10.4 mph 19.6 mph N/A   Partly Cloudy
2:54 PM 50.0 °F - 28.9 °F 44% 30.59 in 10.0 mi NE 8.1 mph - N/A   Clear
3:54 PM 50.0 °F - 28.0 °F 43% 30.59 in 10.0 mi ENE 11.5 mph - N/A   Clear
5:54 PM 48.0 °F - 26.1 °F 42% 30.59 in 10.0 mi ENE 9.2 mph - N/A   Clear
6:54 PM 45.0 °F 39.7 °F 26.1 °F 48% 30.61 in 10.0 mi East 10.4 mph - N/A   Clear
7:54 PM 42.1 °F 38.4 °F 26.1 °F 53% 30.62 in 10.0 mi East 5.8 mph - N/A   Clear
8:54 PM 39.0 °F 34.0 °F 26.1 °F 60% 30.63 in 10.0 mi East 6.9 mph - N/A   Clear
9:54 PM 37.0 °F 33.3 °F 26.1 °F 65% 30.63 in 10.0 mi East 4.6 mph - N/A   Clear
10:54 PM 35.1 °F 31.0 °F 26.1 °F 70% 30.63 in 10.0 mi East 4.6 mph - N/A   Clear
11:54 PM 33.1 °F 30.0 °F 26.1 °F 75% 30.62 in 10.0 mi ESE 3.5 mph - N/A   Clear